Location: Chrome
(40.5765°N, 74.2163°W)
Time: 06:30:15
(UTC+00:00)

Cosmos 1908 Rocket - Pass Details

Date: 06 December 2019
Orbit: 605 x 633 km, 82.5° (Epoch: 27 January)

Event Time Altitude Azimuth Distance (km) Brightness Sun altitude
Rises 22:42:36 0° 1° (N) 2,913 6.8 -13.5°
Reaches altitude 10° 22:45:00 10° 10° (N) 1,997 5.9 -13.9°
Maximum altitude 22:49:04 35° 77° (ENE) 1,002 4.1 -14.6°
Drops below altitude 10° 22:53:04 10° 143° (SE) 1,967 5.9 -15.4°
Sets 22:55:25 0° 153° (SSE) 2,862 6.9 -15.8°
